Total_Precipitation_Accumulation
0.25 0.28 0.28 0.27 0.23 0.21 0.18 0.09 0.09 0.09 0.05 0.04 0.03 0.02 0.02 0.01 0.01 0.01 0.01 0.04 0.05 0.06 0.06 0.05 0.04 0.04 0.05 0.06 0.06 0.07 0.08 0.09 0.09 0.08 0.07 0.06 0.06 0.05 0.06 0.06 0.06 0.06 0.05
0.31 0.32 0.29 0.28 0.25 0.24 0.26 0.18 0.15 0.16 0.08 0.05 0.05 0.05 0.04 0.03 0.03 0.01 0.02 0.03 0.05 0.06 0.07 0.07 0.06 0.07 0.08 0.09 0.10 0.11 0.12 0.12 0.12 0.13 0.13 0.12 0.12 0.11 0.10 0.09 0.08 0.08 0.07
0.28 0.31 0.35 0.33 0.29 0.27 0.28 0.25 0.25 0.24 0.21 0.16 0.13 0.09 0.07 0.07 0.05 0.04 0.03 0.02 0.03 0.05 0.05 0.05 0.06 0.06 0.06 0.07 0.10 0.12 0.13 0.14 0.15 0.15 0.15 0.16 0.17 0.16 0.16 0.14 0.13 0.12 0.11
0.21 0.28 0.33 0.35 0.34 0.34 0.36 0.35 0.34 0.29 0.25 0.21 0.18 0.15 0.11 0.09 0.07 0.06 0.05 0.04 0.03 0.03 0.03 0.03 0.03 0.04 0.04 0.05 0.07 0.08 0.09 0.11 0.13 0.14 0.14 0.16 0.19 0.19 0.18 0.18 0.18 0.16 0.15
0.32 0.38 0.42 0.46 0.47 0.49 0.49 0.48 0.43 0.34 0.28 0.24 0.19 0.14 0.10 0.07 0.07 0.06 0.06 0.04 0.03 0.03 0.02 0.02 0.03 0.03 0.04 0.04 0.04 0.04 0.05 0.07 0.09 0.09 0.09 0.10 0.15 0.17 0.17 0.19 0.21 0.20 0.19
0.64 0.70 0.72 0.70 0.65 0.61 0.54 0.50 0.43 0.36 0.28 0.23 0.17 0.11 0.08 0.06 0.05 0.04 0.03 0.02 0.02 0.01 0.01 0.01 0.01 0.02 0.04 0.04 0.04 0.04 0.04 0.05 0.05 0.06 0.05 0.07 0.09 0.10 0.11 0.14 0.16 0.16 0.19
1.14 1.11 1.03 0.94 0.83 0.73 0.62 0.51 0.39 0.30 0.23 0.17 0.13 0.08 0.05 0.03 0.02 0.02 0.01 0.01 0.01 0.01 0.00 0.00 0.00 0.00 0.01 0.03 0.02 0.02 0.01 0.01 0.01 0.01 0.02 0.04 0.06 0.07 0.07 0.07 0.08 0.10 0.13
1.64 1.58 1.48 1.37 1.22 0.96 0.66 0.45 0.32 0.24 0.19 0.14 0.10 0.07 0.04 0.03 0.02 0.01 0.01 0.01 0.01 0.00 0.00 0.00 0.00 0.00 0.00 0.00 0.00 0.01 0.01 0.00 0.00 0.01 0.01 0.02 0.03 0.03 0.04 0.05 0.05 0.07 0.09
1.94 1.86 1.74 1.49 1.15 0.80 0.54 0.36 0.27 0.19 0.13 0.08 0.05 0.04 0.03 0.02 0.01 0.01 0.01 0.01 0.01 0.00 0.00 0.00 0.00 0.00 0.00 0.00 0.00 0.00 0.00 0.00 0.00 0.00 0.01 0.01 0.01 0.02 0.02 0.04 0.05 0.07 0.09
1.82 1.66 1.48 1.16 0.85 0.59 0.40 0.27 0.18 0.11 0.06 0.04 0.03 0.02 0.01 0.01 0.00 0.00 0.00 0.00 0.00 0.00 0.00 0.00 0.00 0.00 0.00 0.00 0.00 0.00 0.00 0.00 0.00 0.00 0.01 0.01 0.02 0.02 0.03 0.04 0.05 0.07 0.09
1.31 1.06 0.85 0.63 0.45 0.30 0.19 0.11 0.07 0.05 0.03 0.02 0.01 0.01 0.00 0.00 0.00 0.00 0.00 0.00 0.00 0.00 0.00 0.00 0.00 0.00 0.00 0.00 0.00 0.00 0.00 0.00 0.00 0.00 0.00 0.01 0.02 0.03 0.04 0.06 0.09 0.10 0.11
0.88 0.62 0.44 0.29 0.20 0.12 0.06 0.03 0.02 0.01 0.01 0.00 0.00 0.00 0.00 0.00 0.00 0.00 0.00 0.00 0.00 0.00 0.00 0.00 0.00 0.00 0.00 0.00 0.00 0.00 0.00 0.00 0.00 0.00 0.00 0.00 0.01 0.03 0.03 0.05 0.08 0.12 0.17
0.52 0.34 0.23 0.16 0.11 0.06 0.03 0.01 0.01 0.00 0.00 0.00 0.00 0.00 0.00 0.00 0.00 0.00 0.00 0.00 0.00 0.00 0.00 0.00 0.00 0.00 0.00 0.00 0.00 0.00 0.00 0.00 0.00 0.00 0.00 0.00 0.01 0.01 0.02 0.03 0.05 0.09 0.13
0.31 0.21 0.14 0.09 0.06 0.03 0.01 0.01 0.00 0.00 0.00 0.00 0.00 0.00 0.00 0.00 0.00 0.00 0.00 0.00 0.00 0.00 0.00 0.00 0.00 0.00 0.00 0.00 0.00 0.00 0.00 0.01 0.01 0.01 0.01 0.01 0.01 0.02 0.03 0.04 0.05 0.06 0.08
0.19 0.12 0.08 0.05 0.03 0.01 0.01 0.00 0.00 0.00 0.00 0.01 0.00 0.00 0.00 0.00 0.01 0.01 0.01 0.01 0.02 0.02 0.01 0.00 0.00 0.00 0.00 0.00 0.00 0.00 0.00 0.01 0.02 0.02 0.02 0.02 0.02 0.03 0.03 0.04 0.05 0.06 0.06
0.11 0.08 0.06 0.04 0.03 0.02 0.01 0.01 0.01 0.00 0.01 0.01 0.01 0.01 0.02 0.01 0.02 0.02 0.02 0.03 0.03 0.04 0.03 0.01 0.00 0.00 0.00 0.00 0.00 0.01 0.01 0.02 0.02 0.03 0.03 0.04 0.04 0.04 0.04 0.05 0.06 0.07 0.08
0.08 0.07 0.06 0.04 0.03 0.02 0.01 0.01 0.01 0.01 0.02 0.02 0.03 0.03 0.03 0.04 0.04 0.04 0.04 0.04 0.03 0.03 0.04 0.02 0.01 0.01 0.02 0.03 0.03 0.04 0.04 0.06 0.06 0.07 0.08 0.08 0.07 0.07 0.07 0.09 0.10 0.11 0.12
0.09 0.07 0.06 0.04 0.03 0.03 0.03 0.03 0.03 0.03 0.03 0.03 0.03 0.04 0.04 0.04 0.05 0.05 0.04 0.04 0.04 0.05 0.06 0.05 0.03 0.02 0.03 0.04 0.06 0.08 0.06 0.05 0.07 0.07 0.10 0.10 0.10 0.11 0.11 0.10 0.10 0.09 0.09
0.09 0.08 0.06 0.05 0.05 0.04 0.04 0.03 0.03 0.02 0.02 0.02 0.02 0.02 0.02 0.02 0.03 0.04 0.04 0.04 0.04 0.04 0.07 0.09 0.07 0.06 0.05 0.06 0.11 0.11 0.10 0.12 0.10 0.11 0.10 0.10 0.09 0.08 0.07 0.07 0.06 0.06 0.05
0.12 0.11 0.09 0.07 0.05 0.04 0.03 0.02 0.01 0.00 0.00 0.01 0.01 0.01 0.01 0.02 0.04 0.05 0.05 0.05 0.06 0.08 0.10 0.13 0.13 0.10 0.08 0.07 0.13 0.14 0.12 0.12 0.12 0.09 0.09 0.08 0.07 0.05 0.04 0.04 0.04 0.04 0.04
0.12 0.10 0.07 0.05 0.04 0.02 0.01 0.01 0.00 0.00 0.00 0.00 0.01 0.01 0.01 0.02 0.04 0.05 0.05 0.07 0.11 0.15 0.16 0.18 0.16 0.12 0.09 0.10 0.13 0.15 0.14 0.10 0.07 0.06 0.10 0.10 0.11 0.10 0.09 0.09 0.07 0.06 0.04
0.07 0.05 0.04 0.03 0.02 0.01 0.01 0.00 0.00 0.00 0.00 0.01 0.01 0.02 0.02 0.02 0.02 0.02 0.05 0.10 0.16 0.19 0.19 0.20 0.18 0.17 0.12 0.13 0.15 0.17 0.18 0.18 0.14 0.10 0.14 0.11 0.12 0.12 0.12 0.15 0.15 0.09 0.06
0.04 0.04 0.03 0.02 0.02 0.01 0.00 0.00 0.00 0.00 0.01 0.02 0.03 0.03 0.02 0.01 0.02 0.04 0.05 0.07 0.07 0.08 0.14 0.22 0.23 0.20 0.19 0.19 0.24 0.24 0.25 0.26 0.21 0.16 0.23 0.18 0.12 0.13 0.13 0.14 0.14 0.11 0.09
0.04 0.02 0.01 0.01 0.02 0.01 0.00 0.00 0.00 0.00 0.01 0.02 0.03 0.03 0.03 0.03 0.04 0.05 0.04 0.03 0.03 0.05 0.08 0.12 0.19 0.19 0.20 0.21 0.25 0.28 0.29 0.28 0.21 0.18 0.28 0.28 0.15 0.13 0.12 0.17 0.20 0.15 0.11
0.02 0.01 0.01 0.01 0.02 0.03 0.01 0.00 0.00 0.00 0.01 0.01 0.02 0.02 0.03 0.05 0.06 0.07 0.05 0.05 0.05 0.05 0.05 0.08 0.14 0.21 0.23 0.26 0.28 0.30 0.37 0.40 0.30 0.17 0.25 0.33 0.23 0.17 0.15 0.19 0.21 0.18 0.14
0.01 0.01 0.01 0.01 0.02 0.04 0.01 0.00 0.00 0.00 0.01 0.01 0.01 0.02 0.03 0.06 0.05 0.05 0.04 0.07 0.11 0.09 0.10 0.15 0.23 0.28 0.31 0.39 0.40 0.38 0.43 0.44 0.37 0.32 0.29 0.35 0.31 0.28 0.25 0.18 0.18 0.19 0.17